Date,TemperatureHighF,TemperatureAvgF,TemperatureLowF,DewpointHighF,DewpointAvgF,DewpointLowF,HumidityHigh,HumidityAvg,HumidityLow,PressureMaxIn,PressureMinIn,WindSpeedMaxMPH,WindSpeedAvgMPH,GustSpeedMaxMPH,PrecipitationSumIn
2013-8-1,69,62,54,58,55,53,95,81,66,30.08,30.04,9,1,13,0.00
2013-8-2,60,58,56,58,56,53,97,92,86,30.16,30.06,3,0,3,0.12
2013-8-3,70,63,57,60,57,54,97,84,64,30.16,30.08,14,2,14,0.00
2013-8-4,76,65,52,61,57,50,95,77,59,30.10,29.97,12,2,17,0.00
2013-8-5,82,68,56,64,58,53,94,73,52,30.04,29.96,8,1,12,0.00
2013-8-6,82,68,54,59,55,50,87,66,42,30.04,29.95,7,1,10,0.00
2013-8-7,82,67,56,61,55,52,91,68,42,30.04,29.98,12,1,15,0.00
2013-8-8,80,66,56,62,57,53,94,75,51,30.06,29.97,6,1,7,0.00
2013-8-9,80,69,55,61,57,53,93,69,52,29.99,29.87,12,1,16,0.00
2013-8-10,74,65,58,64,60,57,97,85,69,30.04,29.91,6,0,6,0.23
2013-8-11,71,62,56,61,56,53,95,82,63,30.09,30.02,10,1,15,0.00
2013-8-12,75,64,56,59,56,52,91,76,52,30.10,30.03,13,1,13,0.00
2013-8-13,77,66,54,60,56,52,94,73,54,30.13,29.96,11,1,13,0.00
2013-8-14,82,65,56,62,57,51,95,76,41,29.98,29.92,11,0,13,0.10
2013-8-15,69,64,62,65,62,60,97,93,85,30.02,29.94,5,0,7,0.04
2013-8-16,80,69,60,64,61,56,98,77,45,30.04,29.96,10,1,10,0.00
2013-8-17,75,65,57,62,58,54,93,79,63,30.10,30.02,11,1,12,0.00
2013-8-18,74,64,58,62,57,55,92,80,63,30.15,30.10,13,1,21,0.00
2013-8-19,75,65,59,61,56,53,87,76,56,30.14,30.09,11,1,17,0.00
2013-8-20,72,64,57,56,52,48,85,67,44,30.19,30.10,16,2,20,0.00
2013-8-21,75,65,51,56,52,47,87,63,46,30.12,29.96,14,2,23,0.00
2013-8-22,80,68,54,59,53,48,83,61,43,29.98,29.83,10,1,16,0.00
2013-8-23,74,65,59,59,56,55,89,74,55,29.91,29.85,11,1,17,0.00
2013-8-24,70,63,56,61,57,52,95,82,59,29.95,29.88,10,1,11,0.02
2013-8-25,73,62,53,58,54,51,94,78,57,29.98,29.89,8,1,11,0.00
2013-8-26,75,63,56,60,55,52,93,77,46,29.98,29.87,10,1,16,0.04
2013-8-27,78,66,58,62,58,54,94,79,57,29.98,29.82,9,1,13,0.04
2013-8-28,77,67,58,65,60,56,98,81,58,29.92,29.85,10,1,16,0.22
2013-8-29,70,64,62,67,63,60,98,95,85,30.02,29.88,11,1,14,1.29
2013-8-30,74,65,58,62,58,54,96,79,57,30.16,30.02,12,2,16,0.00
2013-8-31,74,65,53,60,56,52,95,75,56,30.11,29.87,11,2,14,0.00